Wetterdaten: aktuell Freitag, 18.10.2019 10:48
Datum Zeit Temp. I. Temp. 2m Temp. 5cm Temp. -10cm Feuchte I. Feuchte 2m Luftdruck Regen Wind Richtung Richtung Taupunkt Windchill Windben
18.10.2019 10:48 23,0 C 12,0 C 13,3 C 12,0 C 59 % 80 % 1019,4 hPa 0,0 l/m 1,3 km/h (1 Bft) O-NO 67 8,7 C 12,0 C 0,0 km/h (0 Bft)
18.10.2019 10:46 22,9 C 12,0 C 13,0 C 12,0 C 59 % 80 % 1019,4 hPa 0,0 l/m 1,6 km/h (1 Bft) O-NO 67 8,7 C 12,0 C 2,3 km/h (1 Bft)
18.10.2019 10:44 22,9 C 11,7 C 12,9 C 12,0 C 59 % 80 % 1019,4 hPa 0,0 l/m 1,8 km/h (1 Bft) O 90 8,4 C 11,7 C 4,6 km/h (1 Bft)
18.10.2019 10:42 22,9 C 11,5 C 13,2 C 12,0 C 59 % 81 % 1019,4 hPa 0,0 l/m 1,6 km/h (1 Bft) O 90 8,4 C 11,5 C 2,3 km/h (1 Bft)
18.10.2019 10:40 22,9 C 11,6 C 13,3 C 12,0 C 59 % 81 % 1019,4 hPa 0,0 l/m 1,4 km/h (1 Bft) O-SO 112 8,5 C 11,6 C 3,5 km/h (1 Bft)
18.10.2019 10:38 22,8 C 11,4 C 13,2 C 12,0 C 60 % 81 % 1019,4 hPa 0,0 l/m 1,3 km/h (1 Bft) O-NO 67 8,3 C 11,4 C 0,0 km/h (0 Bft)
18.10.2019 10:36 22,8 C 11,5 C 12,6 C 11,9 C 60 % 81 % 1019,4 hPa 0,0 l/m 1,6 km/h (1 Bft) N-NO 22 8,4 C 11,5 C 4,2 km/h (1 Bft)
18.10.2019 10:34 22,8 C 11,4 C 12,3 C 11,9 C 59 % 81 % 1019,4 hPa 0,0 l/m 1,6 km/h (1 Bft) O-NO 67 8,3 C 11,4 C 2,7 km/h (1 Bft)
18.10.2019 10:32 22,8 C 11,3 C 12,0 C 11,9 C 59 % 82 % 1019,4 hPa 0,0 l/m 1,8 km/h (1 Bft) O 90 8,3 C 11,3 C 2,3 km/h (1 Bft)
18.10.2019 10:30 22,8 C 11,5 C 12,2 C 11,9 C 59 % 82 % 1019,4 hPa 0,0 l/m 1,6 km/h (1 Bft) O 90 8,5 C 11,5 C 2,7 km/h (1 Bft)
18.10.2019 10:28 22,8 C 11,6 C 12,4 C 11,9 C 60 % 82 % 1019,4 hPa 0,0 l/m 1,8 km/h (1 Bft) O-SO 112 8,6 C 11,6 C 1,9 km/h (1 Bft)
18.10.2019 10:26 22,8 C 11,3 C 12,6 C 11,9 C 60 % 82 % 1019,4 hPa 0,0 l/m 1,9 km/h (1 Bft) O 90 8,3 C 11,3 C 3,1 km/h (1 Bft)
18.10.2019 10:24 22,8 C 11,5 C 12,7 C 11,9 C 60 % 83 % 1019,4 hPa 0,0 l/m 1,4 km/h (1 Bft) O-SO 112 8,7 C 11,5 C 4,1 km/h (1 Bft)
18.10.2019 10:22 22,8 C 11,4 C 13,0 C 11,9 C 60 % 83 % 1019,4 hPa 0,0 l/m 1,0 km/h (0 Bft) O-SO 112 8,6 C 11,4 C 0,0 km/h (0 Bft)
18.10.2019 10:20 22,8 C 11,7 C 13,2 C 11,9 C 60 % 83 % 1019,4 hPa 0,0 l/m 1,0 km/h (0 Bft) O-NO 67 8,9 C 11,7 C 0,0 km/h (0 Bft)
18.10.2019 10:18 22,7 C 11,7 C 13,0 C 11,9 C 60 % 85 % 1019,4 hPa 0,0 l/m 1,0 km/h (0 Bft) O-SO 112 9,3 C 11,7 C 3,9 km/h (1 Bft)
18.10.2019 10:16 22,7 C 11,4 C 12,9 C 11,9 C 60 % 85 % 1019,2 hPa 0,0 l/m 0,5 km/h (0 Bft) O-SO 112 9,0 C 11,4 C 3,1 km/h (1 Bft)
18.10.2019 10:14 22,7 C 11,4 C 12,9 C 11,9 C 60 % 86 % 1019,2 hPa 0,0 l/m 0,3 km/h (0 Bft) O-SO 112 9,1 C 11,4 C 0,0 km/h (0 Bft)
18.10.2019 10:12 22,7 C 11,3 C 12,6 C 11,9 C 60 % 87 % 1019,2 hPa 0,0 l/m 0,5 km/h (0 Bft) O-SO 112 9,2 C 11,3 C 0,0 km/h (0 Bft)
18.10.2019 10:10 22,6 C 11,2 C 12,3 C 12,0 C 60 % 87 % 1019,2 hPa 0,0 l/m 0,6 km/h (0 Bft) O-SO 112 9,1 C 11,2 C 2,1 km/h (1 Bft)
18.10.2019 10:08 22,6 C 10,9 C 11,7 C 12,0 C 60 % 87 % 1019,2 hPa 0,0 l/m 0,5 km/h (0 Bft) O-SO 112 8,8 C 10,9 C 0,0 km/h (0 Bft)
18.10.2019 10:06 22,6 C 10,3 C 11,3 C 11,9 C 60 % 87 % 1019,2 hPa 0,0 l/m 0,6 km/h (0 Bft) O-SO 112 8,2 C 10,3 C 0,0 km/h (0 Bft)
18.10.2019 10:04 22,6 C 10,1 C 11,2 C 11,9 C 60 % 87 % 1019,2 hPa 0,0 l/m 0,6 km/h (0 Bft) O-SO 112 8,0 C 10,1 C 0,0 km/h (0 Bft)
18.10.2019 10:02 22,6 C 10,1 C 11,2 C 11,9 C 60 % 87 % 1019,2 hPa 0,0 l/m 0,6 km/h (0 Bft) O-SO 112 8,0 C 10,1 C 2,3 km/h (1 Bft)
18.10.2019 10:00 22,6 C 10,2 C 11,1 C 11,9 C 60 % 87 % 1019,2 hPa 0,0 l/m 0,5 km/h (0 Bft) O-SO 112 8,1 C 10,2 C 2,1 km/h (1 Bft)
18.10.2019 09:58 22,6 C 10,3 C 11,1 C 11,9 C 60 % 88 % 1019,2 hPa 0,0 l/m 0,6 km/h (0 Bft) O-SO 112 8,4 C 10,3 C 0,0 km/h (0 Bft)
18.10.2019 09:56 22,6 C 10,3 C 11,1 C 11,9 C 60 % 88 % 1019,2 hPa 0,0 l/m 1,0 km/h (0 Bft) O-SO 112 8,4 C 10,3 C 2,1 km/h (1 Bft)
18.10.2019 09:54 22,6 C 10,3 C 11,1 C 11,9 C 60 % 88 % 1019,2 hPa 0,0 l/m 0,8 km/h (0 Bft) O-SO 112 8,4 C 10,3 C 0,0 km/h (0 Bft)
18.10.2019 09:52 22,6 C 10,3 C 11,2 C 11,9 C 60 % 88 % 1019,2 hPa 0,0 l/m 1,0 km/h (0 Bft) O-SO 112 8,4 C 10,3 C 0,0 km/h (0 Bft)
18.10.2019 09:50 22,6 C 10,2 C 11,4 C 11,9 C 60 % 88 % 1019,2 hPa 0,0 l/m 1,4 km/h (1 Bft) O-SO 112 8,3 C 10,2 C 1,9 km/h (1 Bft)
18.10.2019 09:48 22,6 C 10,4 C 11,7 C 11,9 C 60 % 88 % 1019,2 hPa 0,0 l/m 1,3 km/h (1 Bft) O 90 8,5 C 10,4 C 2,5 km/h (1 Bft)
18.10.2019 09:46 22,6 C 10,7 C 12,0 C 11,9 C 60 % 89 % 1019,2 hPa 0,0 l/m 1,1 km/h (1 Bft) O-SO 112 9,0 C 10,7 C 2,1 km/h (1 Bft)
18.10.2019 09:44 22,6 C 10,8 C 12,0 C 11,9 C 60 % 89 % 1019,2 hPa 0,0 l/m 1,1 km/h (1 Bft) O 90 9,1 C 10,8 C 2,5 km/h (1 Bft)
18.10.2019 09:42 22,6 C 10,5 C 12,1 C 11,9 C 60 % 90 % 1019,2 hPa 0,0 l/m 1,3 km/h (1 Bft) O-SO 112 8,9 C 10,5 C 3,9 km/h (1 Bft)
18.10.2019 09:40 22,5 C 10,7 C 12,1 C 11,9 C 60 % 90 % 1019,2 hPa 0,0 l/m 0,8 km/h (0 Bft) SO 135 9,1 C 10,7 C 2,9 km/h (1 Bft)
18.10.2019 09:38 22,5 C 10,8 C 12,2 C 11,9 C 60 % 90 % 1019,2 hPa 0,0 l/m 0,8 km/h (0 Bft) N-NW 337 9,2 C 10,8 C 0,0 km/h (0 Bft)
18.10.2019 09:36 22,5 C 10,3 C 12,3 C 11,9 C 60 % 90 % 1018,9 hPa 0,0 l/m 1,0 km/h (0 Bft) N-NO 22 8,7 C 10,3 C 0,0 km/h (0 Bft)
18.10.2019 09:34 22,5 C 10,0 C 12,3 C 11,9 C 60 % 91 % 1018,9 hPa 0,0 l/m 0,6 km/h (0 Bft) N-NO 22 8,6 C 10,0 C 0,0 km/h (0 Bft)
18.10.2019 09:32 22,4 C 10,1 C 12,1 C 11,9 C 60 % 91 % 1018,9 hPa 0,0 l/m 0,6 km/h (0 Bft) N 360 8,7 C 10,1 C 2,7 km/h (1 Bft)
18.10.2019 09:30 22,4 C 10,3 C 12,0 C 11,9 C 60 % 91 % 1018,9 hPa 0,0 l/m 0,5 km/h (0 Bft) N-NO 22 8,9 C 10,3 C 0,0 km/h (0 Bft)
18.10.2019 09:28 22,4 C 10,0 C 11,9 C 11,9 C 60 % 91 % 1018,9 hPa 0,0 l/m 0,5 km/h (0 Bft) N-NO 22 8,6 C 10,0 C 0,0 km/h (0 Bft)
18.10.2019 09:26 22,4 C 9,8 C 11,7 C 11,9 C 60 % 91 % 1018,9 hPa 0,0 l/m 0,3 km/h (0 Bft) O 90 8,4 C 9,8 C 0,0 km/h (0 Bft)
18.10.2019 09:24 22,4 C 9,8 C 11,4 C 11,9 C 60 % 91 % 1018,9 hPa 0,0 l/m 0,3 km/h (0 Bft) O 90 8,4 C 9,8 C 0,0 km/h (0 Bft)
18.10.2019 09:22 22,4 C 9,7 C 11,3 C 11,9 C 60 % 91 % 1018,9 hPa 0,0 l/m 0,3 km/h (0 Bft) O-NO 67 8,3 C 9,7 C 0,0 km/h (0 Bft)
18.10.2019 09:20 22,3 C 9,5 C 11,2 C 11,9 C 60 % 91 % 1018,9 hPa 0,0 l/m 0,2 km/h (0 Bft) N-NO 22 8,1 C 9,5 C 0,0 km/h (0 Bft)
18.10.2019 09:18 22,2 C 9,4 C 10,9 C 11,9 C 60 % 91 % 1018,9 hPa 0,0 l/m 0,0 km/h (0 Bft) N-NO 22 8,0 C 9,4 C 0,0 km/h (0 Bft)
18.10.2019 09:16 22,3 C 9,2 C 10,8 C 11,9 C 60 % 91 % 1018,6 hPa 0,0 l/m 0,0 km/h (0 Bft) O 90 7,8 C 9,2 C 0,0 km/h (0 Bft)
18.10.2019 09:14 22,3 C 9,1 C 10,6 C 11,9 C 60 % 91 % 1018,6 hPa 0,0 l/m 0,0 km/h (0 Bft) O 90 7,7 C 9,1 C 0,0 km/h (0 Bft)
18.10.2019 09:12 22,2 C 8,6 C 10,4 C 11,9 C 60 % 91 % 1018,6 hPa 0,0 l/m 0,0 km/h (0 Bft) N-NO 22 7,2 C 8,6 C 0,0 km/h (0 Bft)
18.10.2019 09:10 22,2 C 8,5 C 10,2 C 11,9 C 60 % 91 % 1018,6 hPa 0,0 l/m 0,0 km/h (0 Bft) N-NO 22 7,1 C 8,5 C 0,0 km/h (0 Bft)
18.10.2019 09:08 22,2 C 8,7 C 9,9 C 11,9 C 60 % 91 % 1018,6 hPa 0,0 l/m 0,0 km/h (0 Bft) N-NO 22 7,3 C 8,7 C 0,0 km/h (0 Bft)
18.10.2019 09:06 22,2 C 8,5 C 9,7 C 11,9 C 60 % 91 % 1018,6 hPa 0,0 l/m 0,0 km/h (0 Bft) N-NO 22 7,1 C 8,5 C 0,0 km/h (0 Bft)
18.10.2019 09:04 22,2 C 8,3 C 9,6 C 11,9 C 60 % 92 % 1018,6 hPa 0,0 l/m 0,0 km/h (0 Bft) N-NO 22 7,1 C 8,3 C 0,0 km/h (0 Bft)
18.10.2019 09:02 22,2 C 8,5 C 9,5 C 11,9 C 61 % 91 % 1018,6 hPa 0,0 l/m 0,0 km/h (0 Bft) N-NO 22 7,1 C 8,5 C 0,0 km/h (0 Bft)
18.10.2019 09:00 22,2 C 8,2 C 9,5 C 11,9 C 61 % 92 % 1018,6 hPa 0,0 l/m 0,0 km/h (0 Bft) N-NO 22 7,0 C 8,2 C 0,0 km/h (0 Bft)
18.10.2019 08:58 22,2 C 8,0 C 9,5 C 11,9 C 61 % 92 % 1018,6 hPa 0,0 l/m 0,2 km/h (0 Bft) N-NO 22 6,8 C 8,0 C 0,0 km/h (0 Bft)
18.10.2019 08:56 22,1 C 8,0 C 9,5 C 11,9 C 61 % 92 % 1018,4 hPa 0,0 l/m 0,2 km/h (0 Bft) N-NO 22 6,8 C 8,0 C 0,0 km/h (0 Bft)
18.10.2019 08:54 22,1 C 8,1 C 9,3 C 11,9 C 61 % 92 % 1018,4 hPa 0,0 l/m 0,2 km/h (0 Bft) N-NO 22 6,9 C 8,1 C 0,0 km/h (0 Bft)
18.10.2019 08:52 22,1 C 8,2 C 9,1 C 11,9 C 61 % 92 % 1018,4 hPa 0,0 l/m 0,2 km/h (0 Bft) N-NO 22 7,0 C 8,2 C 0,0 km/h (0 Bft)
18.10.2019 08:50 22,1 C 8,0 C 9,0 C 11,9 C 61 % 91 % 1018,4 hPa 0,0 l/m 0,2 km/h (0 Bft) N-NO 22 6,6 C 8,0 C 0,0 km/h (0 Bft)
18.10.2019 08:48 22,1 C 7,9 C 8,8 C 11,9 C 61 % 91 % 1018,4 hPa 0,0 l/m 0,2 km/h (0 Bft) N-NO 22 6,5 C 7,9 C 0,0 km/h (0 Bft)
18.10.2019 08:46 22,1 C 7,8 C 8,7 C 12,0 C 61 % 91 % 1018,4 hPa 0,0 l/m 0,2 km/h (0 Bft) N-NO 22 6,4 C 7,8 C 0,0 km/h (0 Bft)
18.10.2019 08:44 22,1 C 7,7 C 8,6 C 12,0 C 61 % 91 % 1018,4 hPa 0,0 l/m 0,3 km/h (0 Bft) N-NO 22 6,3 C 7,7 C 0,0 km/h (0 Bft)
18.10.2019 08:42 22,0 C 7,6 C 8,3 C 12,0 C 61 % 91 % 1018,4 hPa 0,0 l/m 0,5 km/h (0 Bft) N-NO 22 6,2 C 7,6 C 0,0 km/h (0 Bft)
18.10.2019 08:40 22,0 C 7,5 C 8,1 C 12,0 C 61 % 91 % 1018,4 hPa 0,0 l/m 0,8 km/h (0 Bft) N-NO 22 6,1 C 7,5 C 0,0 km/h (0 Bft)
18.10.2019 08:38 22,0 C 7,4 C 7,8 C 12,0 C 61 % 91 % 1018,4 hPa 0,0 l/m 1,4 km/h (1 Bft) N-NO 22 6,0 C 7,4 C 0,0 km/h (0 Bft)
18.10.2019 08:36 22,0 C 7,4 C 7,5 C 12,0 C 61 % 91 % 1018,0 hPa 0,0 l/m 2,1 km/h (1 Bft) N-NO 22 6,0 C 7,4 C 0,0 km/h (0 Bft)
18.10.2019 08:34 22,0 C 7,0 C 7,2 C 12,0 C 61 % 91 % 1018,0 hPa 0,0 l/m 2,4 km/h (1 Bft) NO 45 5,6 C 7,0 C 2,1 km/h (1 Bft)
18.10.2019 08:32 22,0 C 6,9 C 7,1 C 12,0 C 61 % 90 % 1018,0 hPa 0,0 l/m 2,3 km/h (1 Bft) N-NO 22 5,4 C 6,9 C 0,0 km/h (0 Bft)
18.10.2019 08:30 22,0 C 6,9 C 7,0 C 12,0 C 61 % 90 % 1018,0 hPa 0,0 l/m 1,9 km/h (1 Bft) N-NO 22 5,4 C 6,9 C 3,3 km/h (1 Bft)
18.10.2019 08:28 22,0 C 6,7 C 6,9 C 12,0 C 61 % 90 % 1018,0 hPa 0,0 l/m 1,4 km/h (1 Bft) N-NO 22 5,2 C 6,7 C 4,1 km/h (1 Bft)
18.10.2019 08:26 22,0 C 6,6 C 6,9 C 12,0 C 61 % 90 % 1018,0 hPa 0,0 l/m 0,8 km/h (0 Bft) N-NO 22 5,1 C 6,6 C 3,5 km/h (1 Bft)
18.10.2019 08:24 22,0 C 6,3 C 7,1 C 12,0 C 61 % 90 % 1018,0 hPa 0,0 l/m 0,3 km/h (0 Bft) N-NO 22 4,8 C 6,3 C 3,3 km/h (1 Bft)
18.10.2019 08:22 22,0 C 5,9 C 7,2 C 12,0 C 61 % 90 % 1018,0 hPa 0,0 l/m 0,0 km/h (0 Bft) W-SW 247 4,4 C 5,9 C 0,0 km/h (0 Bft)
18.10.2019 08:20 22,0 C 5,5 C 7,1 C 12,0 C 61 % 90 % 1018,0 hPa 0,0 l/m 0,0 km/h (0 Bft) SW 225 4,0 C 5,5 C 0,0 km/h (0 Bft)
18.10.2019 08:18 22,0 C 5,4 C 7,0 C 12,0 C 61 % 90 % 1018,0 hPa 0,0 l/m 0,0 km/h (0 Bft) SW 225 3,9 C 5,4 C 0,0 km/h (0 Bft)
18.10.2019 08:16 22,0 C 5,4 C 6,9 C 12,0 C 61 % 90 % 1018,1 hPa 0,0 l/m 0,0 km/h (0 Bft) SW 225 3,9 C 5,4 C 0,0 km/h (0 Bft)
18.10.2019 08:14 21,9 C 5,4 C 6,5 C 12,0 C 61 % 90 % 1018,1 hPa 0,0 l/m 0,0 km/h (0 Bft) SW 225 3,9 C 5,4 C 0,0 km/h (0 Bft)
18.10.2019 08:12 21,9 C 5,3 C 6,6 C 12,0 C 61 % 90 % 1018,1 hPa 0,0 l/m 0,0 km/h (0 Bft) SW 225 3,8 C 5,3 C 0,0 km/h (0 Bft)
18.10.2019 08:10 21,9 C 5,4 C 7,0 C 12,0 C 61 % 90 % 1018,1 hPa 0,0 l/m 0,0 km/h (0 Bft) SW 225 3,9 C 5,4 C 0,0 km/h (0 Bft)
18.10.2019 08:08 22,0 C 5,5 C 7,0 C 12,0 C 61 % 90 % 1018,1 hPa 0,0 l/m 0,0 km/h (0 Bft) SW 225 4,0 C 5,5 C 0,0 km/h (0 Bft)
18.10.2019 08:06 21,9 C 5,5 C 7,0 C 12,0 C 61 % 90 % 1018,1 hPa 0,0 l/m 0,0 km/h (0 Bft) SW 225 4,0 C 5,5 C 0,0 km/h (0 Bft)
18.10.2019 08:04 21,9 C 5,6 C 7,0 C 12,0 C 61 % 90 % 1018,1 hPa 0,0 l/m 0,0 km/h (0 Bft) SW 225 4,1 C 5,6 C 0,0 km/h (0 Bft)
18.10.2019 08:02 21,9 C 5,8 C 6,9 C 12,0 C 61 % 90 % 1018,1 hPa 0,0 l/m 0,0 km/h (0 Bft) SW 225 4,3 C 5,8 C 0,0 km/h (0 Bft)
18.10.2019 08:00 21,9 C 5,8 C 6,9 C 12,0 C 61 % 90 % 1018,1 hPa 0,0 l/m 0,0 km/h (0 Bft) W-SW 247 4,3 C 5,8 C 0,0 km/h (0 Bft)
18.10.2019 07:58 21,9 C 5,9 C 6,7 C 12,0 C 61 % 90 % 1018,1 hPa 0,0 l/m 0,0 km/h (0 Bft) W-SW 247 4,4 C 5,9 C 0,0 km/h (0 Bft)
18.10.2019 07:56 21,9 C 6,0 C 6,9 C 12,0 C 61 % 90 % 1018,0 hPa 0,0 l/m 0,3 km/h (0 Bft) W-SW 247 4,5 C 6,0 C 0,0 km/h (0 Bft)
18.10.2019 07:54 21,9 C 6,1 C 6,7 C 12,0 C 61 % 90 % 1018,0 hPa 0,0 l/m 0,5 km/h (0 Bft) W-SW 247 4,6 C 6,1 C 0,0 km/h (0 Bft)
18.10.2019 07:52 21,9 C 6,1 C 6,4 C 12,0 C 61 % 90 % 1018,0 hPa 0,0 l/m 0,5 km/h (0 Bft) W-SW 247 4,6 C 6,1 C 0,0 km/h (0 Bft)
18.10.2019 07:50 21,9 C 6,0 C 6,0 C 12,0 C 61 % 90 % 1018,0 hPa 0,0 l/m 0,5 km/h (0 Bft) W-SW 247 4,5 C 6,0 C 0,0 km/h (0 Bft)
18.10.2019 07:48 21,9 C 6,0 C 6,0 C 12,0 C 61 % 90 % 1018,0 hPa 0,0 l/m 1,0 km/h (0 Bft) W-SW 247 4,5 C 6,0 C 0,0 km/h (0 Bft)
18.10.2019 07:46 21,9 C 5,9 C 5,9 C 12,0 C 61 % 90 % 1018,0 hPa 0,0 l/m 1,1 km/h (1 Bft) W-SW 247 4,4 C 5,9 C 2,3 km/h (1 Bft)
18.10.2019 07:44 21,9 C 5,9 C 5,9 C 12,0 C 61 % 90 % 1018,0 hPa 0,0 l/m 0,8 km/h (0 Bft) W-SW 247 4,4 C 5,9 C 2,1 km/h (1 Bft)
18.10.2019 07:42 21,9 C 6,0 C 6,0 C 12,0 C 61 % 90 % 1018,0 hPa 0,0 l/m 0,8 km/h (0 Bft) W-SW 247 4,5 C 6,0 C 0,0 km/h (0 Bft)
18.10.2019 07:40 21,9 C 6,1 C 6,0 C 12,0 C 61 % 90 % 1018,0 hPa 0,0 l/m 0,8 km/h (0 Bft) W-SW 247 4,6 C 6,1 C 0,0 km/h (0 Bft)
18.10.2019 07:38 21,9 C 6,2 C 6,2 C 12,0 C 61 % 90 % 1018,0 hPa 0,0 l/m 0,8 km/h (0 Bft) W-SW 247 4,7 C 6,2 C 2,7 km/h (1 Bft)
18.10.2019 07:36 21,9 C 6,2 C 6,2 C 12,0 C 61 % 90 % 1017,9 hPa 0,0 l/m 0,6 km/h (0 Bft) W-SW 247 4,7 C 6,2 C 2,1 km/h (1 Bft)
18.10.2019 07:34 21,9 C 6,2 C 6,3 C 12,0 C 61 % 90 % 1017,9 hPa 0,0 l/m 0,8 km/h (0 Bft) W-SW 247 4,7 C 6,2 C 0,0 km/h (0 Bft)
18.10.2019 07:32 21,9 C 6,2 C 6,3 C 12,0 C 61 % 89 % 1017,9 hPa 0,0 l/m 1,4 km/h (1 Bft) W-SW 247 4,5 C 6,2 C 0,0 km/h (0 Bft)
18.10.2019 07:30 21,9 C 6,1 C 6,4 C 12,0 C 61 % 89 % 1017,9 hPa 0,0 l/m 1,9 km/h (1 Bft) W-SW 247 4,4 C 6,1 C 0,0 km/h (0 Bft)
18.10.2019 07:28 21,9 C 6,0 C 6,3 C 12,0 C 61 % 89 % 1017,9 hPa 0,0 l/m 2,3 km/h (1 Bft) W-SW 247 4,3 C 6,0 C 1,9 km/h (1 Bft)
18.10.2019 07:26 21,9 C 5,9 C 6,0 C 12,0 C 61 % 89 % 1017,9 hPa 0,0 l/m 2,7 km/h (1 Bft) W-SW 247 4,2 C 5,9 C 2,9 km/h (1 Bft)
18.10.2019 07:24 21,9 C 6,0 C 5,9 C 12,1 C 61 % 89 % 1017,9 hPa 0,0 l/m 2,9 km/h (1 Bft) W-SW 247 4,3 C 6,0 C 2,5 km/h (1 Bft)
18.10.2019 07:22 21,9 C 6,0 C 6,0 C 12,1 C 61 % 89 % 1017,9 hPa 0,0 l/m 3,1 km/h (1 Bft) W-SW 247 4,3 C 6,0 C 3,3 km/h (1 Bft)
18.10.2019 07:20 21,9 C 6,1 C 6,0 C 12,1 C 61 % 89 % 1017,9 hPa 0,0 l/m 3,2 km/h (1 Bft) W-SW 247 4,4 C 6,1 C 3,7 km/h (1 Bft)
18.10.2019 07:18 21,9 C 6,2 C 6,0 C 12,1 C 61 % 89 % 1017,9 hPa 0,0 l/m 3,2 km/h (1 Bft) W-SW 247 4,5 C 6,2 C 3,9 km/h (1 Bft)
18.10.2019 07:16 21,9 C 6,3 C 6,2 C 12,1 C 61 % 89 % 1017,8 hPa 0,0 l/m 3,2 km/h (1 Bft) W 270 4,6 C 6,3 C 4,1 km/h (1 Bft)
18.10.2019 07:14 21,8 C 6,2 C 6,3 C 12,1 C 61 % 89 % 1017,8 hPa 0,0 l/m 3,1 km/h (1 Bft) W 270 4,5 C 6,2 C 5,2 km/h (1 Bft)
18.10.2019 07:12 21,8 C 6,0 C 6,2 C 12,1 C 61 % 89 % 1017,8 hPa 0,0 l/m 2,9 km/h (1 Bft) W-SW 247 4,3 C 6,0 C 3,7 km/h (1 Bft)
18.10.2019 07:10 21,9 C 6,0 C 6,4 C 12,1 C 61 % 89 % 1017,8 hPa 0,0 l/m 3,1 km/h (1 Bft) W-SW 247 4,3 C 6,0 C 3,3 km/h (1 Bft)
18.10.2019 07:08 21,8 C 5,9 C 6,6 C 12,1 C 61 % 89 % 1017,8 hPa 0,0 l/m 3,2 km/h (1 Bft) W-SW 247 4,2 C 5,9 C 4,2 km/h (1 Bft)
18.10.2019 07:06 21,9 C 5,9 C 6,7 C 12,1 C 61 % 89 % 1017,8 hPa 0,0 l/m 3,4 km/h (1 Bft) W-SW 247 4,2 C 5,9 C 4,1 km/h (1 Bft)
18.10.2019 07:04 21,8 C 6,1 C 6,6 C 12,1 C 61 % 89 % 1017,8 hPa 0,0 l/m 3,9 km/h (1 Bft) W-SW 247 4,4 C 6,1 C 3,5 km/h (1 Bft)
18.10.2019 07:02 21,8 C 6,6 C 6,5 C 12,1 C 61 % 89 % 1017,8 hPa 0,0 l/m 4,2 km/h (1 Bft) W-SW 247 4,9 C 6,6 C 3,9 km/h (1 Bft)
18.10.2019 07:00 21,8 C 7,0 C 6,8 C 12,1 C 61 % 90 % 1017,8 hPa 0,0 l/m 4,7 km/h (1 Bft) W-SW 247 5,5 C 7,0 C 5,0 km/h (1 Bft)
18.10.2019 06:58 21,8 C 7,3 C 6,7 C 12,1 C 61 % 90 % 1017,8 hPa 0,0 l/m 5,1 km/h (1 Bft) W 270 5,8 C 7,3 C 5,2 km/h (1 Bft)
18.10.2019 06:56 21,8 C 7,3 C 6,6 C 12,1 C 61 % 90 % 1017,8 hPa 0,0 l/m 5,6 km/h (1 Bft) W 270 5,8 C 7,3 C 5,4 km/h (1 Bft)
18.10.2019 06:54 21,8 C 7,3 C 6,7 C 12,1 C 61 % 90 % 1017,8 hPa 0,0 l/m 5,6 km/h (1 Bft) W 270 5,8 C 7,3 C 6,2 km/h (2 Bft)
18.10.2019 06:52 21,8 C 7,3 C 6,8 C 12,1 C 61 % 90 % 1017,8 hPa 0,0 l/m 5,5 km/h (1 Bft) W 270 5,8 C 7,3 C 6,6 km/h (2 Bft)
18.10.2019 06:50 21,8 C 7,3 C 6,9 C 12,1 C 61 % 90 % 1017,8 hPa 0,0 l/m 5,3 km/h (1 Bft) W 270 5,8 C 7,3 C 6,4 km/h (2 Bft)
18.10.2019 06:48 21,8 C 7,3 C 6,8 C 12,1 C 61 % 90 % 1017,8 hPa 0,0 l/m 4,8 km/h (1 Bft) W 270 5,8 C 7,3 C 8,3 km/h (2 Bft)
18.10.2019 06:46 21,8 C 7,3 C 6,7 C 12,1 C 61 % 90 % 1017,8 hPa 0,0 l/m 4,3 km/h (1 Bft) W 270 5,8 C 7,3 C 9,3 km/h (2 Bft)
18.10.2019 06:44 21,8 C 7,4 C 6,7 C 12,1 C 61 % 89 % 1017,8 hPa 0,0 l/m 4,0 km/h (1 Bft) W 270 5,7 C 7,4 C 5,8 km/h (2 Bft)
18.10.2019 06:42 21,8 C 7,4 C 6,6 C 12,1 C 61 % 89 % 1017,8 hPa 0,0 l/m 3,5 km/h (1 Bft) W-SW 247 5,7 C 7,4 C 5,0 km/h (1 Bft)
18.10.2019 06:40 21,8 C 7,4 C 6,6 C 12,1 C 61 % 89 % 1017,8 hPa 0,0 l/m 3,5 km/h (1 Bft) W-SW 247 5,7 C 7,4 C 4,6 km/h (1 Bft)
18.10.2019 06:38 21,8 C 7,0 C 6,5 C 12,1 C 61 % 89 % 1017,8 hPa 0,0 l/m 3,5 km/h (1 Bft) W-SW 247 5,3 C 7,0 C 3,9 km/h (1 Bft)
18.10.2019 06:36 21,8 C 7,0 C 6,4 C 12,1 C 61 % 89 % 1017,9 hPa 0,0 l/m 3,9 km/h (1 Bft) W-SW 247 5,3 C 7,0 C 5,8 km/h (2 Bft)
18.10.2019 06:34 21,8 C 6,9 C 6,5 C 12,1 C 61 % 89 % 1017,9 hPa 0,0 l/m 4,0 km/h (1 Bft) W-SW 247 5,2 C 6,9 C 5,0 km/h (1 Bft)
18.10.2019 06:32 21,8 C 6,9 C 6,6 C 12,1 C 61 % 89 % 1017,9 hPa 0,0 l/m 4,5 km/h (1 Bft) W-SW 247 5,2 C 6,9 C 3,3 km/h (1 Bft)
18.10.2019 06:30 21,8 C 7,0 C 6,6 C 12,1 C 61 % 89 % 1017,9 hPa 0,0 l/m 5,5 km/h (1 Bft) W-SW 247 5,3 C 7,0 C 4,2 km/h (1 Bft)
18.10.2019 06:28 21,8 C 6,8 C 6,4 C 12,2 C 61 % 89 % 1017,9 hPa 0,0 l/m 6,0 km/h (2 Bft) W-SW 247 5,1 C 6,8 C 4,8 km/h (1 Bft)
18.10.2019 06:26 21,8 C 6,4 C 6,5 C 12,2 C 61 % 89 % 1017,9 hPa 0,0 l/m 6,3 km/h (2 Bft) W-SW 247 4,7 C 6,4 C 6,8 km/h (2 Bft)
18.10.2019 06:24 21,8 C 6,3 C 6,7 C 12,2 C 61 % 89 % 1017,9 hPa 0,0 l/m 6,4 km/h (2 Bft) W-SW 247 4,6 C 6,3 C 7,1 km/h (2 Bft)
18.10.2019 06:22 21,8 C 6,6 C 6,6 C 12,2 C 61 % 89 % 1017,9 hPa 0,0 l/m 6,4 km/h (2 Bft) W-SW 247 4,9 C 6,6 C 7,1 km/h (2 Bft)
18.10.2019 06:20 21,8 C 6,9 C 6,4 C 12,2 C 61 % 89 % 1017,9 hPa 0,0 l/m 6,3 km/h (2 Bft) W-SW 247 5,2 C 6,9 C 9,3 km/h (2 Bft)
18.10.2019 06:18 21,8 C 6,5 C 6,3 C 12,2 C 61 % 89 % 1017,9 hPa 0,0 l/m 5,8 km/h (2 Bft) W-SW 247 4,8 C 6,5 C 8,9 km/h (2 Bft)
18.10.2019 06:16 21,8 C 6,3 C 6,3 C 12,2 C 61 % 89 % 1018,0 hPa 0,0 l/m 5,1 km/h (1 Bft) W-SW 247 4,6 C 6,3 C 7,7 km/h (2 Bft)
18.10.2019 06:14 21,8 C 6,4 C 6,2 C 12,2 C 61 % 89 % 1018,0 hPa 0,0 l/m 4,8 km/h (1 Bft) W-SW 247 4,7 C 6,4 C 7,3 km/h (2 Bft)
18.10.2019 06:12 21,8 C 6,5 C 6,1 C 12,2 C 61 % 89 % 1018,0 hPa 0,0 l/m 4,3 km/h (1 Bft) W-SW 247 4,8 C 6,5 C 7,7 km/h (2 Bft)
18.10.2019 06:10 21,8 C 6,4 C 6,0 C 12,2 C 61 % 89 % 1018,0 hPa 0,0 l/m 3,9 km/h (1 Bft) W-SW 247 4,7 C 6,4 C 6,6 km/h (2 Bft)
18.10.2019 06:08 21,8 C 6,3 C 6,0 C 12,2 C 61 % 89 % 1018,0 hPa 0,0 l/m 3,5 km/h (1 Bft) W-SW 247 4,6 C 6,3 C 5,0 km/h (1 Bft)
18.10.2019 06:06 21,8 C 6,1 C 5,9 C 12,2 C 61 % 89 % 1018,0 hPa 0,0 l/m 3,4 km/h (1 Bft) W-SW 247 4,4 C 6,1 C 4,6 km/h (1 Bft)
18.10.2019 06:04 21,8 C 5,9 C 5,8 C 12,2 C 61 % 89 % 1018,0 hPa 0,0 l/m 3,1 km/h (1 Bft) W-SW 247 4,2 C 5,9 C 3,3 km/h (1 Bft)
18.10.2019 06:02 21,8 C 5,9 C 5,8 C 12,2 C 61 % 89 % 1018,0 hPa 0,0 l/m 3,1 km/h (1 Bft) W-SW 247 4,2 C 5,9 C 3,3 km/h (1 Bft)
18.10.2019 06:00 21,8 C 5,6 C 5,8 C 12,2 C 61 % 89 % 1018,0 hPa 0,0 l/m 2,9 km/h (1 Bft) W-SW 247 3,9 C 5,6 C 4,1 km/h (1 Bft)
18.10.2019 05:58 21,8 C 5,4 C 5,8 C 12,2 C 61 % 89 % 1018,0 hPa 0,0 l/m 2,6 km/h (1 Bft) W-SW 247 3,7 C 5,4 C 4,1 km/h (1 Bft)
18.10.2019 05:56 21,8 C 5,3 C 5,9 C 12,2 C 61 % 89 % 1017,8 hPa 0,0 l/m 2,6 km/h (1 Bft) SW 225 3,6 C 5,3 C 3,5 km/h (1 Bft)
18.10.2019 05:54 21,8 C 5,4 C 5,9 C 12,2 C 61 % 89 % 1017,8 hPa 0,0 l/m 2,4 km/h (1 Bft) SW 225 3,7 C 5,4 C 3,9 km/h (1 Bft)
18.10.2019 05:52 21,8 C 5,5 C 6,0 C 12,2 C 61 % 89 % 1017,8 hPa 0,0 l/m 1,8 km/h (1 Bft) W-SW 247 3,8 C 5,5 C 3,1 km/h (1 Bft)
18.10.2019 05:50 21,8 C 5,6 C 6,1 C 12,2 C 61 % 89 % 1017,8 hPa 0,0 l/m 1,8 km/h (1 Bft) W-SW 247 3,9 C 5,6 C 2,7 km/h (1 Bft)
18.10.2019 05:48 21,8 C 5,8 C 6,3 C 12,2 C 61 % 89 % 1017,8 hPa 0,0 l/m 1,3 km/h (1 Bft) W-SW 247 4,1 C 5,8 C 2,1 km/h (1 Bft)
18.10.2019 05:46 21,8 C 5,9 C 6,6 C 12,2 C 61 % 89 % 1017,8 hPa 0,0 l/m 1,0 km/h (0 Bft) W-SW 247 4,2 C 5,9 C 3,3 km/h (1 Bft)
18.10.2019 05:44 21,8 C 6,0 C 6,5 C 12,2 C 61 % 89 % 1017,8 hPa 0,0 l/m 0,6 km/h (0 Bft) W-SW 247 4,3 C 6,0 C 2,5 km/h (1 Bft)
18.10.2019 05:42 21,8 C 5,8 C 6,6 C 12,2 C 61 % 89 % 1017,8 hPa 0,0 l/m 0,3 km/h (0 Bft) W-SW 247 4,1 C 5,8 C 0,0 km/h (0 Bft)
18.10.2019 05:40 21,8 C 5,9 C 6,6 C 12,2 C 61 % 89 % 1017,8 hPa 0,0 l/m 0,2 km/h (0 Bft) W-SW 247 4,2 C 5,9 C 1,9 km/h (1 Bft)
18.10.2019 05:38 21,8 C 6,0 C 6,7 C 12,2 C 61 % 89 % 1017,8 hPa 0,0 l/m 0,0 km/h (0 Bft) W-SW 247 4,3 C 6,0 C 1,9 km/h (1 Bft)
18.10.2019 05:36 21,8 C 6,1 C 6,7 C 12,2 C 61 % 89 % 1017,9 hPa 0,0 l/m 0,0 km/h (0 Bft) W-SW 247 4,4 C 6,1 C 0,0 km/h (0 Bft)
18.10.2019 05:34 21,8 C 6,2 C 6,7 C 12,2 C 61 % 89 % 1017,9 hPa 0,0 l/m 0,0 km/h (0 Bft) W-SW 247 4,5 C 6,2 C 0,0 km/h (0 Bft)
18.10.2019 05:32 21,8 C 6,3 C 6,4 C 12,2 C 61 % 89 % 1017,9 hPa 0,0 l/m 0,0 km/h (0 Bft) W-SW 247 4,6 C 6,3 C 0,0 km/h (0 Bft)
18.10.2019 05:30 21,8 C 6,3 C 6,6 C 12,2 C 61 % 89 % 1017,9 hPa 0,0 l/m 0,0 km/h (0 Bft) W-SW 247 4,6 C 6,3 C 0,0 km/h (0 Bft)
18.10.2019 05:28 21,8 C 6,2 C 6,5 C 12,2 C 61 % 89 % 1017,9 hPa 0,0 l/m 0,0 km/h (0 Bft) W-SW 247 4,5 C 6,2 C 0,0 km/h (0 Bft)
18.10.2019 05:26 21,8 C 6,2 C 6,4 C 12,3 C 61 % 89 % 1017,9 hPa 0,0 l/m 0,0 km/h (0 Bft) W-SW 247 4,5 C 6,2 C 0,0 km/h (0 Bft)
18.10.2019 05:24 21,8 C 6,3 C 6,7 C 12,3 C 61 % 89 % 1017,9 hPa 0,0 l/m 0,2 km/h (0 Bft) W-SW 247 4,6 C 6,3 C 0,0 km/h (0 Bft)
18.10.2019 05:22 21,8 C 6,4 C 6,6 C 12,3 C 61 % 89 % 1017,9 hPa 0,0 l/m 0,2 km/h (0 Bft) W-SW 247 4,7 C 6,4 C 0,0 km/h (0 Bft)
18.10.2019 05:20 21,8 C 6,4 C 6,5 C 12,3 C 61 % 89 % 1017,9 hPa 0,0 l/m 0,5 km/h (0 Bft) W-SW 247 4,7 C 6,4 C 0,0 km/h (0 Bft)
18.10.2019 05:18 21,8 C 6,4 C 6,4 C 12,3 C 61 % 88 % 1017,9 hPa 0,0 l/m 0,6 km/h (0 Bft) W-SW 247 4,6 C 6,4 C 0,0 km/h (0 Bft)
18.10.2019 05:16 21,8 C 6,4 C 6,3 C 12,3 C 61 % 88 % 1017,8 hPa 0,0 l/m 0,6 km/h (0 Bft) W-SW 247 4,6 C 6,4 C 0,0 km/h (0 Bft)
18.10.2019 05:14 21,8 C 6,3 C 6,3 C 12,3 C 61 % 89 % 1017,8 hPa 0,0 l/m 1,0 km/h (0 Bft) W-SW 247 4,6 C 6,3 C 1,9 km/h (1 Bft)
18.10.2019 05:12 21,8 C 6,3 C 6,1 C 12,3 C 61 % 89 % 1017,8 hPa 0,0 l/m 1,4 km/h (1 Bft) W-SW 247 4,6 C 6,3 C 0,0 km/h (0 Bft)
18.10.2019 05:10 21,8 C 6,2 C 6,3 C 12,3 C 61 % 89 % 1017,8 hPa 0,0 l/m 1,8 km/h (1 Bft) W-SW 247 4,5 C 6,2 C 1,9 km/h (1 Bft)
18.10.2019 05:08 21,8 C 6,3 C 6,5 C 12,3 C 61 % 89 % 1017,8 hPa 0,0 l/m 2,3 km/h (1 Bft) W-SW 247 4,6 C 6,3 C 1,9 km/h (1 Bft)
18.10.2019 05:06 21,8 C 6,3 C 6,7 C 12,3 C 61 % 89 % 1017,8 hPa 0,0 l/m 2,6 km/h (1 Bft) W-SW 247 4,6 C 6,3 C 0,0 km/h (0 Bft)
18.10.2019 05:04 21,8 C 6,3 C 6,6 C 12,3 C 61 % 89 % 1017,8 hPa 0,0 l/m 2,7 km/h (1 Bft) W-SW 247 4,6 C 6,3 C 3,3 km/h (1 Bft)
18.10.2019 05:03 21,8 C 6,3 C 6,6 C 12,3 C 61 % 89 % 1017,8 hPa 0,0 l/m 2,7 km/h (1 Bft) W-SW 247 4,6 C 6,3 C 3,3 km/h (1 Bft)
18.10.2019 05:01 21,8 C 6,2 C 6,5 C 12,3 C 61 % 89 % 1017,8 hPa 0,0 l/m 2,6 km/h (1 Bft) W-SW 247 4,5 C 6,2 C 3,9 km/h (1 Bft)
18.10.2019 05:00 21,8 C 6,1 C 6,4 C 12,3 C 61 % 88 % 1017,8 hPa 0,0 l/m 2,4 km/h (1 Bft) W 270 4,3 C 6,1 C 3,9 km/h (1 Bft)
18.10.2019 04:58 21,8 C 6,0 C 6,6 C 12,3 C 61 % 89 % 1017,8 hPa 0,0 l/m 1,9 km/h (1 Bft) W 270 4,3 C 6,0 C 3,9 km/h (1 Bft)
18.10.2019 04:56 21,8 C 6,0 C 6,7 C 12,3 C 61 % 89 % 1017,8 hPa 0,0 l/m 1,4 km/h (1 Bft) W 270 4,3 C 6,0 C 2,9 km/h (1 Bft)
18.10.2019 04:54 21,8 C 6,2 C 6,9 C 12,3 C 61 % 89 % 1017,8 hPa 0,0 l/m 1,4 km/h (1 Bft) W 270 4,5 C 6,2 C 2,7 km/h (1 Bft)
18.10.2019 04:52 21,8 C 6,4 C 6,9 C 12,3 C 61 % 88 % 1017,8 hPa 0,0 l/m 1,3 km/h (1 Bft) W 270 4,6 C 6,4 C 2,7 km/h (1 Bft)
18.10.2019 04:50 21,8 C 6,5 C 7,1 C 12,3 C 61 % 88 % 1017,8 hPa 0,0 l/m 1,0 km/h (0 Bft) W 270 4,7 C 6,5 C 3,1 km/h (1 Bft)
18.10.2019 04:48 21,8 C 6,6 C 7,0 C 12,3 C 61 % 88 % 1017,8 hPa 0,0 l/m 1,0 km/h (0 Bft) W 270 4,8 C 6,6 C 0,0 km/h (0 Bft)
18.10.2019 04:46 21,8 C 6,6 C 7,0 C 12,3 C 61 % 88 % 1017,8 hPa 0,0 l/m 1,4 km/h (1 Bft) W 270 4,8 C 6,6 C 0,0 km/h (0 Bft)
18.10.2019 04:44 21,8 C 6,5 C 7,1 C 12,3 C 61 % 88 % 1017,8 hPa 0,0 l/m 1,8 km/h (1 Bft) W 270 4,7 C 6,5 C 2,7 km/h (1 Bft)
18.10.2019 04:42 21,8 C 6,3 C 7,4 C 12,3 C 61 % 89 % 1017,8 hPa 0,0 l/m 1,8 km/h (1 Bft) W 270 4,6 C 6,3 C 2,3 km/h (1 Bft)
18.10.2019 04:40 21,8 C 6,3 C 7,3 C 12,3 C 61 % 89 % 1017,8 hPa 0,0 l/m 2,1 km/h (1 Bft) W 270 4,6 C 6,3 C 0,0 km/h (0 Bft)
18.10.2019 04:38 21,8 C 6,3 C 7,1 C 12,3 C 61 % 89 % 1017,8 hPa 0,0 l/m 2,6 km/h (1 Bft) W 270 4,6 C 6,3 C 1,9 km/h (1 Bft)
18.10.2019 04:36 21,8 C 6,4 C 6,9 C 12,4 C 61 % 88 % 1017,8 hPa 0,0 l/m 2,7 km/h (1 Bft) W 270 4,6 C 6,4 C 3,1 km/h (1 Bft)
18.10.2019 04:34 21,8 C 6,6 C 6,7 C 12,4 C 61 % 88 % 1017,8 hPa 0,0 l/m 2,7 km/h (1 Bft) W 270 4,8 C 6,6 C 3,7 km/h (1 Bft)
18.10.2019 04:32 21,8 C 6,7 C 6,7 C 12,4 C 61 % 88 % 1017,8 hPa 0,0 l/m 2,7 km/h (1 Bft) W-SW 247 4,9 C 6,7 C 2,7 km/h (1 Bft)
18.10.2019 04:30 21,8 C 6,8 C 6,7 C 12,4 C 61 % 88 % 1017,8 hPa 0,0 l/m 2,9 km/h (1 Bft) W-SW 247 5,0 C 6,8 C 3,5 km/h (1 Bft)
18.10.2019 04:28 21,8 C 6,8 C 6,6 C 12,4 C 61 % 88 % 1017,8 hPa 0,0 l/m 2,7 km/h (1 Bft) W-SW 247 5,0 C 6,8 C 3,3 km/h (1 Bft)
18.10.2019 04:26 21,8 C 6,8 C 6,7 C 12,4 C 61 % 88 % 1017,8 hPa 0,0 l/m 2,7 km/h (1 Bft) W-SW 247 5,0 C 6,8 C 3,7 km/h (1 Bft)
18.10.2019 04:24 21,8 C 6,8 C 6,5 C 12,4 C 61 % 88 % 1017,8 hPa 0,0 l/m 2,6 km/h (1 Bft) W-SW 247 5,0 C 6,8 C 3,5 km/h (1 Bft)
18.10.2019 04:22 21,8 C 6,5 C 6,5 C 12,4 C 61 % 88 % 1017,8 hPa 0,0 l/m 2,1 km/h (1 Bft) W-SW 247 4,7 C 6,5 C 4,4 km/h (1 Bft)
18.10.2019 04:20 21,8 C 6,2 C 6,4 C 12,4 C 61 % 88 % 1017,8 hPa 0,0 l/m 1,6 km/h (1 Bft) W-SW 247 4,4 C 6,2 C 3,3 km/h (1 Bft)
18.10.2019 04:18 21,8 C 6,1 C 6,7 C 12,4 C 61 % 88 % 1017,8 hPa 0,0 l/m 1,1 km/h (1 Bft) W-SW 247 4,3 C 6,1 C 2,5 km/h (1 Bft)
18.10.2019 04:16 21,8 C 6,3 C 7,0 C 12,4 C 61 % 88 % 1017,8 hPa 0,0 l/m 0,8 km/h (0 Bft) W-SW 247 4,5 C 6,3 C 3,3 km/h (1 Bft)
18.10.2019 04:14 21,8 C 6,8 C 7,0 C 12,4 C 61 % 88 % 1017,8 hPa 0,0 l/m 0,3 km/h (0 Bft) W-SW 247 5,0 C 6,8 C 3,3 km/h (1 Bft)
18.10.2019 04:12 21,8 C 6,9 C 6,8 C 12,4 C 61 % 88 % 1017,8 hPa 0,0 l/m 0,0 km/h (0 Bft) W-SW 247 5,1 C 6,9 C 0,0 km/h (0 Bft)
18.10.2019 04:10 21,8 C 6,8 C 6,9 C 12,4 C 61 % 88 % 1017,8 hPa 0,0 l/m 0,0 km/h (0 Bft) W-SW 247 5,0 C 6,8 C 0,0 km/h (0 Bft)
18.10.2019 04:08 21,8 C 6,7 C 7,2 C 12,4 C 61 % 88 % 1017,8 hPa 0,0 l/m 0,0 km/h (0 Bft) W-SW 247 4,9 C 6,7 C 0,0 km/h (0 Bft)
18.10.2019 04:06 21,8 C 6,6 C 7,1 C 12,4 C 61 % 88 % 1017,8 hPa 0,0 l/m 0,0 km/h (0 Bft) W-SW 247 4,8 C 6,6 C 0,0 km/h (0 Bft)
18.10.2019 04:04 21,8 C 6,5 C 6,9 C 12,4 C 61 % 88 % 1017,8 hPa 0,0 l/m 0,5 km/h (0 Bft) W-SW 247 4,7 C 6,5 C 0,0 km/h (0 Bft)
18.10.2019 04:02 21,8 C 6,4 C 7,0 C 12,4 C 61 % 88 % 1017,8 hPa 0,0 l/m 0,8 km/h (0 Bft) W-SW 247 4,6 C 6,4 C 0,0 km/h (0 Bft)
18.10.2019 04:00 21,8 C 6,4 C 6,6 C 12,4 C 61 % 88 % 1017,8 hPa 0,0 l/m 1,0 km/h (0 Bft) W-SW 247 4,6 C 6,4 C 0,0 km/h (0 Bft)
18.10.2019 03:58 21,8 C 6,5 C 6,5 C 12,4 C 61 % 88 % 1017,8 hPa 0,0 l/m 1,3 km/h (1 Bft) W-SW 247 4,7 C 6,5 C 0,0 km/h (0 Bft)
18.10.2019 03:56 21,8 C 6,6 C 6,4 C 12,4 C 61 % 88 % 1017,8 hPa 0,0 l/m 1,3 km/h (1 Bft) W-SW 247 4,8 C 6,6 C 2,1 km/h (1 Bft)
18.10.2019 03:54 21,8 C 6,5 C 6,6 C 12,4 C 61 % 88 % 1017,8 hPa 0,0 l/m 1,0 km/h (0 Bft) W-SW 247 4,7 C 6,5 C 2,3 km/h (1 Bft)
18.10.2019 03:52 21,8 C 6,3 C 6,7 C 12,4 C 61 % 88 % 1017,8 hPa 0,0 l/m 1,1 km/h (1 Bft) W-SW 247 4,5 C 6,3 C 2,3 km/h (1 Bft)
18.10.2019 03:50 21,8 C 6,2 C 6,8 C 12,4 C 61 % 88 % 1017,8 hPa 0,0 l/m 1,3 km/h (1 Bft) W-SW 247 4,4 C 6,2 C 2,7 km/h (1 Bft)
18.10.2019 03:48 21,8 C 6,3 C 6,6 C 12,4 C 61 % 88 % 1017,8 hPa 0,0 l/m 1,1 km/h (1 Bft) W 270 4,5 C 6,3 C 2,5 km/h (1 Bft)
18.10.2019 03:46 21,8 C 6,5 C 7,0 C 12,4 C 61 % 88 % 1017,8 hPa 0,0 l/m 1,4 km/h (1 Bft) N-NW 337 4,7 C 6,5 C 0,0 km/h (0 Bft)
18.10.2019 03:44 21,8 C 7,1 C 7,0 C 12,4 C 61 % 88 % 1017,8 hPa 0,0 l/m 1,6 km/h (1 Bft) NW 315 5,2 C 7,1 C 0,0 km/h (0 Bft)
18.10.2019 03:42 21,8 C 7,8 C 7,5 C 12,4 C 61 % 88 % 1017,8 hPa 0,0 l/m 1,6 km/h (1 Bft) NW 315 5,9 C 7,8 C 3,1 km/h (1 Bft)
18.10.2019 03:40 21,8 C 7,8 C 7,7 C 12,4 C 61 % 88 % 1017,8 hPa 0,0 l/m 1,3 km/h (1 Bft) NW 315 5,9 C 7,8 C 2,5 km/h (1 Bft)
18.10.2019 03:38 21,8 C 7,8 C 7,5 C 12,4 C 61 % 88 % 1017,8 hPa 0,1 l/m 1,0 km/h (0 Bft) NW 315 5,9 C 7,8 C 2,7 km/h (1 Bft)
18.10.2019 03:36 21,8 C 8,2 C 7,0 C 12,4 C 61 % 88 % 1017,9 hPa 0,0 l/m 0,8 km/h (0 Bft) NW 315 6,3 C 8,2 C 2,5 km/h (1 Bft)
18.10.2019 03:34 21,8 C 8,1 C 6,9 C 12,4 C 61 % 88 % 1017,9 hPa 0,0 l/m 0,5 km/h (0 Bft) NW 315 6,2 C 8,1 C 2,1 km/h (1 Bft)
18.10.2019 03:32 21,8 C 8,0 C 7,0 C 12,4 C 61 % 88 % 1017,9 hPa 0,0 l/m 0,3 km/h (0 Bft) NW 315 6,1 C 8,0 C 2,3 km/h (1 Bft)
18.10.2019 03:30 21,8 C 8,0 C 7,2 C 12,4 C 61 % 88 % 1017,9 hPa 0,0 l/m 0,3 km/h (0 Bft) W-NW 292 6,1 C 8,0 C 2,1 km/h (1 Bft)
18.10.2019 03:28 21,8 C 7,9 C 7,0 C 12,4 C 61 % 88 % 1017,9 hPa 0,0 l/m 0,3 km/h (0 Bft) W-NW 292 6,0 C 7,9 C 0,0 km/h (0 Bft)
18.10.2019 03:26 21,8 C 8,0 C 6,8 C 12,4 C 61 % 88 % 1017,9 hPa 0,0 l/m 0,3 km/h (0 Bft) W-NW 292 6,1 C 8,0 C 2,3 km/h (1 Bft)
18.10.2019 03:24 21,8 C 8,0 C 7,3 C 12,4 C 61 % 88 % 1017,9 hPa 0,0 l/m 0,3 km/h (0 Bft) W-SW 247 6,1 C 8,0 C 0,0 km/h (0 Bft)
18.10.2019 03:22 21,8 C 7,9 C 7,6 C 12,4 C 61 % 88 % 1017,9 hPa 0,0 l/m 0,5 km/h (0 Bft) W-SW 247 6,0 C 7,9 C 0,0 km/h (0 Bft)
18.10.2019 03:20 21,8 C 7,9 C 7,7 C 12,4 C 61 % 88 % 1017,9 hPa 0,0 l/m 0,6 km/h (0 Bft) W-SW 247 6,0 C 7,9 C 1,9 km/h (1 Bft)
18.10.2019 03:18 21,8 C 7,8 C 7,3 C 12,4 C 61 % 88 % 1017,9 hPa 0,0 l/m 0,8 km/h (0 Bft) W-SW 247 5,9 C 7,8 C 0,0 km/h (0 Bft)
18.10.2019 03:16 21,8 C 7,8 C 7,3 C 12,4 C 61 % 88 % 1017,6 hPa 0,0 l/m 1,1 km/h (1 Bft) W-SW 247 5,9 C 7,8 C 0,0 km/h (0 Bft)
18.10.2019 03:14 21,8 C 7,8 C 7,3 C 12,4 C 61 % 88 % 1017,6 hPa 0,0 l/m 1,6 km/h (1 Bft) W-SW 247 5,9 C 7,8 C 0,0 km/h (0 Bft)
18.10.2019 03:12 21,8 C 7,9 C 7,3 C 12,4 C 61 % 88 % 1017,6 hPa 0,0 l/m 1,4 km/h (1 Bft) W-SW 247 6,0 C 7,9 C 2,1 km/h (1 Bft)
18.10.2019 03:10 21,8 C 7,9 C 7,3 C 12,4 C 61 % 88 % 1017,6 hPa 0,0 l/m 1,3 km/h (1 Bft) W-SW 247 6,0 C 7,9 C 0,0 km/h (0 Bft)
18.10.2019 03:08 21,8 C 8,0 C 7,6 C 12,4 C 61 % 88 % 1017,6 hPa 0,0 l/m 1,4 km/h (1 Bft) W-SW 247 6,1 C 8,0 C 2,7 km/h (1 Bft)
18.10.2019 03:06 21,8 C 8,1 C 7,5 C 12,4 C 61 % 88 % 1017,6 hPa 0,0 l/m 1,1 km/h (1 Bft) W-SW 247 6,2 C 8,1 C 1,9 km/h (1 Bft)
18.10.2019 03:04 21,8 C 8,1 C 7,5 C 12,4 C 61 % 88 % 1017,6 hPa 0,0 l/m 1,1 km/h (1 Bft) W-SW 247 6,2 C 8,1 C 1,9 km/h (1 Bft)
18.10.2019 03:02 21,8 C 8,1 C 7,5 C 12,4 C 61 % 88 % 1017,6 hPa 0,0 l/m 1,1 km/h (1 Bft) W-SW 247 6,2 C 8,1 C 1,9 km/h (1 Bft)
18.10.2019 03:00 21,8 C 8,1 C 7,3 C 12,4 C 61 % 88 % 1017,6 hPa 0,0 l/m 1,1 km/h (1 Bft) W-SW 247 6,2 C 8,1 C 0,0 km/h (0 Bft)
18.10.2019 02:58 21,8 C 8,0 C 7,3 C 12,4 C 61 % 88 % 1017,6 hPa 0,0 l/m 1,0 km/h (0 Bft) W-SW 247 6,1 C 8,0 C 2,5 km/h (1 Bft)
18.10.2019 02:56 21,8 C 7,9 C 7,4 C 12,5 C 61 % 88 % 1017,9 hPa 0,0 l/m 1,1 km/h (1 Bft) W-SW 247 6,0 C 7,9 C 2,3 km/h (1 Bft)
18.10.2019 02:54 21,8 C 7,8 C 7,5 C 12,5 C 61 % 88 % 1017,9 hPa 0,0 l/m 1,1 km/h (1 Bft) W-SW 247 5,9 C 7,8 C 2,1 km/h (1 Bft)
18.10.2019 02:52 21,8 C 7,7 C 7,5 C 12,5 C 61 % 88 % 1017,9 hPa 0,0 l/m 1,1 km/h (1 Bft) W-SW 247 5,8 C 7,7 C 2,1 km/h (1 Bft)
18.10.2019 02:50 21,8 C 7,9 C 7,8 C 12,5 C 61 % 88 % 1017,9 hPa 0,0 l/m 1,4 km/h (1 Bft) W-SW 247 6,0 C 7,9 C 2,1 km/h (1 Bft)
18.10.2019 02:48 21,8 C 8,0 C 7,9 C 12,5 C 61 % 88 % 1017,9 hPa 0,0 l/m 1,6 km/h (1 Bft) W-SW 247 6,1 C 8,0 C 0,0 km/h (0 Bft)
18.10.2019 02:46 21,8 C 8,1 C 8,1 C 12,5 C 61 % 88 % 1017,9 hPa 0,0 l/m 2,1 km/h (1 Bft) W-SW 247 6,2 C 8,1 C 0,0 km/h (0 Bft)
18.10.2019 02:44 21,8 C 8,1 C 7,9 C 12,5 C 61 % 88 % 1017,9 hPa 0,0 l/m 2,6 km/h (1 Bft) W-SW 247 6,2 C 8,1 C 2,7 km/h (1 Bft)
18.10.2019 02:42 21,8 C 8,3 C 7,7 C 12,5 C 61 % 88 % 1017,9 hPa 0,0 l/m 2,9 km/h (1 Bft) W-SW 247 6,4 C 8,3 C 2,7 km/h (1 Bft)
18.10.2019 02:40 21,8 C 8,4 C 7,7 C 12,5 C 61 % 88 % 1017,9 hPa 0,0 l/m 3,5 km/h (1 Bft) W-SW 247 6,5 C 8,4 C 4,2 km/h (1 Bft)
18.10.2019 02:38 21,8 C 8,4 C 8,0 C 12,5 C 61 % 88 % 1017,9 hPa 0,0 l/m 3,9 km/h (1 Bft) W 270 6,5 C 8,4 C 3,1 km/h (1 Bft)
18.10.2019 02:36 21,8 C 8,4 C 8,3 C 12,5 C 61 % 88 % 1017,9 hPa 0,0 l/m 4,7 km/h (1 Bft) W-SW 247 6,5 C 8,4 C 3,5 km/h (1 Bft)
18.10.2019 02:34 21,8 C 8,4 C 8,4 C 12,5 C 61 % 88 % 1017,9 hPa 0,0 l/m 5,3 km/h (1 Bft) W 270 6,5 C 8,4 C 4,2 km/h (1 Bft)
18.10.2019 02:32 21,8 C 8,5 C 8,4 C 12,5 C 61 % 88 % 1017,9 hPa 0,0 l/m 6,0 km/h (2 Bft) W 270 6,6 C 8,5 C 12,4 km/h (3 Bft)
18.10.2019 02:30 21,8 C 8,6 C 8,2 C 12,5 C 61 % 88 % 1017,9 hPa 0,0 l/m 6,4 km/h (2 Bft) W-NW 292 6,7 C 8,6 C 5,4 km/h (1 Bft)
18.10.2019 02:28 21,8 C 8,7 C 8,2 C 12,5 C 61 % 88 % 1017,9 hPa 0,0 l/m 6,1 km/h (2 Bft) W-NW 292 6,8 C 8,7 C 11,8 km/h (2 Bft)
18.10.2019 02:26 21,8 C 8,7 C 8,2 C 12,5 C 61 % 88 % 1017,9 hPa 0,0 l/m 5,8 km/h (2 Bft) W-NW 292 6,8 C 8,7 C 8,5 km/h (2 Bft)
18.10.2019 02:24 21,8 C 8,7 C 8,2 C 12,5 C 61 % 88 % 1017,9 hPa 0,0 l/m 5,6 km/h (1 Bft) W-NW 292 6,8 C 8,7 C 12,4 km/h (3 Bft)
18.10.2019 02:22 21,8 C 8,6 C 8,1 C 12,5 C 61 % 88 % 1017,9 hPa 0,0 l/m 5,5 km/h (1 Bft) W-NW 292 6,7 C 8,6 C 10,0 km/h (2 Bft)
18.10.2019 02:20 21,8 C 8,6 C 8,1 C 12,5 C 61 % 88 % 1017,9 hPa 0,0 l/m 5,1 km/h (1 Bft) W 270 6,7 C 8,6 C 11,6 km/h (2 Bft)
18.10.2019 02:18 21,8 C 8,7 C 8,0 C 12,5 C 61 % 88 % 1017,9 hPa 0,0 l/m 5,3 km/h (1 Bft) W-NW 292 6,8 C 8,7 C 5,0 km/h (1 Bft)
18.10.2019 02:16 21,8 C 8,7 C 8,0 C 12,5 C 61 % 88 % 1017,8 hPa 0,0 l/m 5,5 km/h (1 Bft) W 270 6,8 C 8,7 C 5,4 km/h (1 Bft)
18.10.2019 02:14 21,8 C 8,6 C 7,8 C 12,5 C 61 % 88 % 1017,8 hPa 0,0 l/m 5,5 km/h (1 Bft) NW 315 6,7 C 8,6 C 6,4 km/h (2 Bft)
18.10.2019 02:12 21,8 C 8,6 C 7,8 C 12,5 C 61 % 88 % 1017,8 hPa 0,0 l/m 5,0 km/h (1 Bft) W-SW 247 6,7 C 8,6 C 7,1 km/h (2 Bft)
18.10.2019 02:10 21,8 C 8,6 C 7,9 C 12,5 C 61 % 88 % 1017,8 hPa 0,0 l/m 4,7 km/h (1 Bft) W 270 6,7 C 8,6 C 7,3 km/h (2 Bft)
18.10.2019 02:08 21,8 C 8,5 C 7,9 C 12,5 C 61 % 88 % 1017,8 hPa 0,0 l/m 4,0 km/h (1 Bft) W-NW 292 6,6 C 8,5 C 8,9 km/h (2 Bft)
18.10.2019 02:06 21,8 C 8,5 C 8,0 C 12,5 C 61 % 88 % 1017,8 hPa 0,0 l/m 3,5 km/h (1 Bft) W-NW 292 6,6 C 8,5 C 6,2 km/h (2 Bft)
18.10.2019 02:04 21,8 C 8,5 C 8,0 C 12,5 C 61 % 88 % 1017,8 hPa 0,0 l/m 3,2 km/h (1 Bft) W-NW 292 6,6 C 8,5 C 5,0 km/h (1 Bft)
18.10.2019 02:02 21,8 C 8,6 C 8,1 C 12,5 C 61 % 88 % 1017,8 hPa 0,0 l/m 3,1 km/h (1 Bft) W 270 6,7 C 8,6 C 5,6 km/h (1 Bft)
18.10.2019 02:00 21,8 C 8,8 C 8,0 C 12,5 C 61 % 88 % 1017,8 hPa 0,0 l/m 2,9 km/h (1 Bft) W-NW 292 6,9 C 8,8 C 4,6 km/h (1 Bft)
18.10.2019 01:58 21,8 C 8,7 C 8,0 C 12,5 C 61 % 88 % 1017,8 hPa 0,0 l/m 3,4 km/h (1 Bft) W-SW 247 6,8 C 8,7 C 4,8 km/h (1 Bft)
18.10.2019 01:56 21,8 C 8,6 C 7,8 C 12,5 C 61 % 88 % 1017,6 hPa 0,0 l/m 3,4 km/h (1 Bft) NW 315 6,7 C 8,6 C 6,4 km/h (2 Bft)
18.10.2019 01:54 21,8 C 8,6 C 7,7 C 12,5 C 61 % 88 % 1017,6 hPa 0,0 l/m 3,5 km/h (1 Bft) NW 315 6,7 C 8,6 C 4,6 km/h (1 Bft)
18.10.2019 01:52 21,8 C 8,3 C 7,8 C 12,5 C 61 % 88 % 1017,6 hPa 0,0 l/m 3,9 km/h (1 Bft) W-NW 292 6,4 C 8,3 C 2,5 km/h (1 Bft)
18.10.2019 01:50 21,8 C 8,0 C 7,9 C 12,5 C 61 % 88 % 1017,6 hPa 0,0 l/m 4,3 km/h (1 Bft) W-NW 292 6,1 C 8,0 C 4,8 km/h (1 Bft)
18.10.2019 01:48 21,8 C 7,8 C 7,7 C 12,6 C 61 % 88 % 1017,6 hPa 0,0 l/m 4,3 km/h (1 Bft) W 270 5,9 C 7,8 C 5,4 km/h (1 Bft)
18.10.2019 01:46 21,8 C 7,8 C 7,7 C 12,6 C 61 % 88 % 1017,6 hPa 0,0 l/m 4,2 km/h (1 Bft) W-NW 292 5,9 C 7,8 C 3,7 km/h (1 Bft)
18.10.2019 01:44 21,8 C 7,8 C 7,7 C 12,6 C 61 % 88 % 1017,6 hPa 0,0 l/m 4,2 km/h (1 Bft) W 270 5,9 C 7,8 C 5,2 km/h (1 Bft)
18.10.2019 01:42 21,8 C 8,0 C 7,5 C 12,6 C 61 % 88 % 1017,6 hPa 0,0 l/m 4,2 km/h (1 Bft) W-SW 247 6,1 C 8,0 C 5,0 km/h (1 Bft)
18.10.2019 01:40 21,8 C 8,0 C 7,4 C 12,6 C 61 % 88 % 1017,6 hPa 0,0 l/m 4,2 km/h (1 Bft) W-SW 247 6,1 C 8,0 C 6,0 km/h (2 Bft)
18.10.2019 01:38 21,8 C 7,9 C 7,6 C 12,6 C 61 % 88 % 1017,6 hPa 0,0 l/m 4,2 km/h (1 Bft) W-SW 247 6,0 C 7,9 C 5,0 km/h (1 Bft)
18.10.2019 01:36 21,8 C 7,7 C 7,8 C 12,6 C 61 % 88 % 1017,4 hPa 0,0 l/m 4,2 km/h (1 Bft) W-SW 247 5,8 C 7,7 C 4,4 km/h (1 Bft)
18.10.2019 01:34 21,8 C 7,8 C 8,0 C 12,6 C 61 % 88 % 1017,4 hPa 0,0 l/m 4,5 km/h (1 Bft) W-SW 247 5,9 C 7,8 C 5,4 km/h (1 Bft)
18.10.2019 01:32 21,8 C 8,0 C 8,2 C 12,6 C 61 % 88 % 1017,4 hPa 0,0 l/m 5,0 km/h (1 Bft) W-SW 247 6,1 C 8,0 C 5,8 km/h (2 Bft)
18.10.2019 01:30 21,8 C 8,4 C 8,2 C 12,6 C 61 % 88 % 1017,4 hPa 0,0 l/m 5,5 km/h (1 Bft) SW 225 6,5 C 8,4 C 5,0 km/h (1 Bft)
18.10.2019 01:28 21,8 C 8,7 C 8,0 C 12,6 C 61 % 88 % 1017,4 hPa 0,0 l/m 6,0 km/h (2 Bft) SW 225 6,8 C 8,7 C 6,2 km/h (2 Bft)
18.10.2019 01:26 21,8 C 8,7 C 7,9 C 12,6 C 61 % 88 % 1017,4 hPa 0,0 l/m 6,0 km/h (2 Bft) W-SW 247 6,8 C 8,7 C 5,0 km/h (1 Bft)
18.10.2019 01:24 21,8 C 8,7 C 7,7 C 12,6 C 61 % 88 % 1017,4 hPa 0,0 l/m 6,0 km/h (2 Bft) W 270 6,8 C 8,7 C 7,0 km/h (2 Bft)
18.10.2019 01:22 21,8 C 8,6 C 7,6 C 12,6 C 61 % 88 % 1017,4 hPa 0,0 l/m 5,3 km/h (1 Bft) W 270 6,7 C 8,6 C 11,6 km/h (2 Bft)
18.10.2019 01:20 21,8 C 8,3 C 7,5 C 12,6 C 61 % 88 % 1017,4 hPa 0,0 l/m 4,7 km/h (1 Bft) W 270 6,4 C 8,3 C 7,7 km/h (2 Bft)
18.10.2019 01:18 21,8 C 8,0 C 7,4 C 12,6 C 61 % 88 % 1017,4 hPa 0,0 l/m 3,9 km/h (1 Bft) W 270 6,1 C 8,0 C 7,3 km/h (2 Bft)
18.10.2019 01:16 21,8 C 7,9 C 7,3 C 12,6 C 61 % 88 % 1017,1 hPa 0,0 l/m 3,4 km/h (1 Bft) W 270 6,0 C 7,9 C 6,0 km/h (2 Bft)
18.10.2019 01:14 21,8 C 7,9 C 7,3 C 12,6 C 61 % 88 % 1017,1 hPa 0,0 l/m 3,2 km/h (1 Bft) W 270 6,0 C 7,9 C 6,0 km/h (2 Bft)
18.10.2019 01:12 21,9 C 7,8 C 7,2 C 12,7 C 61 % 88 % 1017,1 hPa 0,0 l/m 3,1 km/h (1 Bft) W-SW 247 5,9 C 7,8 C 5,0 km/h (1 Bft)
18.10.2019 01:10 21,9 C 7,7 C 7,2 C 12,6 C 61 % 87 % 1017,1 hPa 0,0 l/m 2,7 km/h (1 Bft) W-SW 247 5,7 C 7,7 C 4,1 km/h (1 Bft)
18.10.2019 01:08 21,8 C 7,7 C 7,0 C 12,6 C 61 % 87 % 1017,1 hPa 0,0 l/m 2,9 km/h (1 Bft) W-SW 247 5,7 C 7,7 C 3,5 km/h (1 Bft)
18.10.2019 01:06 21,9 C 7,5 C 7,0 C 12,6 C 61 % 87 % 1017,1 hPa 0,0 l/m 3,4 km/h (1 Bft) W-SW 247 5,5 C 7,5 C 3,3 km/h (1 Bft)
18.10.2019 01:04 21,9 C 7,2 C 7,0 C 12,6 C 61 % 87 % 1017,1 hPa 0,0 l/m 3,7 km/h (1 Bft) W 270 5,2 C 7,2 C 4,8 km/h (1 Bft)
18.10.2019 01:02 21,9 C 6,9 C 7,4 C 12,6 C 61 % 87 % 1017,1 hPa 0,0 l/m 4,0 km/h (1 Bft) W 270 4,9 C 6,9 C 4,1 km/h (1 Bft)
18.10.2019 01:00 21,9 C 6,8 C 7,6 C 12,6 C 61 % 87 % 1017,1 hPa 0,0 l/m 4,7 km/h (1 Bft) W-SW 247 4,8 C 6,8 C 2,5 km/h (1 Bft)
18.10.2019 00:58 21,9 C 6,8 C 7,7 C 12,6 C 61 % 87 % 1017,1 hPa 0,0 l/m 5,1 km/h (1 Bft) W 270 4,8 C 6,8 C 5,6 km/h (1 Bft)
18.10.2019 00:56 21,9 C 6,9 C 7,6 C 12,6 C 61 % 87 % 1017,2 hPa 0,0 l/m 5,1 km/h (1 Bft) W 270 4,9 C 6,9 C 5,0 km/h (1 Bft)
18.10.2019 00:54 21,9 C 7,5 C 7,6 C 12,6 C 61 % 87 % 1017,2 hPa 0,0 l/m 5,1 km/h (1 Bft) W 270 5,5 C 7,5 C 7,3 km/h (2 Bft)
18.10.2019 00:52 21,9 C 8,4 C 7,6 C 12,7 C 61 % 87 % 1017,2 hPa 0,0 l/m 4,8 km/h (1 Bft) W 270 6,4 C 8,4 C 7,7 km/h (2 Bft)
18.10.2019 00:50 21,9 C 8,3 C 7,6 C 12,7 C 61 % 88 % 1017,2 hPa 0,0 l/m 4,7 km/h (1 Bft) W 270 6,4 C 8,3 C 7,0 km/h (2 Bft)
18.10.2019 00:48 21,9 C 8,3 C 7,6 C 12,7 C 61 % 87 % 1017,2 hPa 0,0 l/m 4,5 km/h (1 Bft) W 270 6,3 C 8,3 C 7,5 km/h (2 Bft)
18.10.2019 00:46 21,9 C 8,1 C 7,6 C 12,7 C 61 % 87 % 1017,2 hPa 0,0 l/m 4,7 km/h (1 Bft) W-NW 292 6,1 C 8,1 C 6,0 km/h (2 Bft)
18.10.2019 00:44 21,9 C 8,0 C 7,5 C 12,7 C 61 % 87 % 1017,2 hPa 0,0 l/m 4,5 km/h (1 Bft) W-NW 292 6,0 C 8,0 C 5,2 km/h (1 Bft)
18.10.2019 00:42 21,9 C 8,0 C 7,4 C 12,7 C 61 % 87 % 1017,2 hPa 0,0 l/m 4,3 km/h (1 Bft) NW 315 6,0 C 8,0 C 7,0 km/h (2 Bft)
18.10.2019 00:40 21,9 C 8,0 C 7,5 C 12,7 C 61 % 87 % 1017,2 hPa 0,0 l/m 4,5 km/h (1 Bft) W-NW 292 6,0 C 8,0 C 5,8 km/h (2 Bft)
18.10.2019 00:38 22,0 C 8,0 C 7,4 C 12,7 C 61 % 87 % 1017,2 hPa 0,0 l/m 4,2 km/h (1 Bft) W 270 6,0 C 8,0 C 6,6 km/h (2 Bft)
18.10.2019 00:36 22,0 C 8,0 C 7,4 C 12,7 C 61 % 87 % 1017,2 hPa 0,0 l/m 3,9 km/h (1 Bft) W 270 6,0 C 8,0 C 6,2 km/h (2 Bft)
18.10.2019 00:34 22,0 C 8,0 C 7,4 C 12,7 C 61 % 87 % 1017,2 hPa 0,0 l/m 3,7 km/h (1 Bft) W 270 6,0 C 8,0 C 4,2 km/h (1 Bft)
18.10.2019 00:32 22,0 C 7,9 C 7,4 C 12,7 C 61 % 87 % 1017,2 hPa 0,0 l/m 3,7 km/h (1 Bft) W 270 5,9 C 7,9 C 4,2 km/h (1 Bft)
18.10.2019 00:30 22,0 C 8,1 C 7,4 C 12,7 C 61 % 87 % 1017,2 hPa 0,0 l/m 3,7 km/h (1 Bft) W 270 6,1 C 8,1 C 4,4 km/h (1 Bft)
18.10.2019 00:28 22,0 C 8,1 C 7,4 C 12,7 C 61 % 87 % 1017,2 hPa 0,0 l/m 3,9 km/h (1 Bft) W 270 6,1 C 8,1 C 4,4 km/h (1 Bft)
18.10.2019 00:26 22,0 C 8,2 C 7,5 C 12,7 C 61 % 87 % 1017,2 hPa 0,0 l/m 4,2 km/h (1 Bft) W 270 6,2 C 8,2 C 3,9 km/h (1 Bft)
18.10.2019 00:24 22,0 C 8,3 C 7,4 C 12,7 C 61 % 87 % 1017,2 hPa 0,0 l/m 4,3 km/h (1 Bft) W 270 6,3 C 8,3 C 4,8 km/h (1 Bft)
18.10.2019 00:22 22,0 C 8,2 C 7,4 C 12,7 C 61 % 87 % 1017,2 hPa 0,0 l/m 4,3 km/h (1 Bft) W 270 6,2 C 8,2 C 6,8 km/h (2 Bft)
18.10.2019 00:20 22,0 C 8,2 C 7,3 C 12,7 C 61 % 87 % 1017,2 hPa 0,0 l/m 4,2 km/h (1 Bft) W 270 6,2 C 8,2 C 5,0 km/h (1 Bft)
18.10.2019 00:18 22,0 C 8,1 C 7,2 C 12,7 C 61 % 87 % 1017,2 hPa 0,0 l/m 3,7 km/h (1 Bft) W 270 6,1 C 8,1 C 6,6 km/h (2 Bft)
18.10.2019 00:16 22,0 C 8,0 C 7,0 C 12,7 C 61 % 87 % 1017,4 hPa 0,0 l/m 3,4 km/h (1 Bft) W 270 6,0 C 8,0 C 6,4 km/h (2 Bft)
18.10.2019 00:14 22,0 C 7,8 C 7,0 C 12,7 C 61 % 87 % 1017,4 hPa 0,0 l/m 3,2 km/h (1 Bft) N-NW 337 5,8 C 7,8 C 5,2 km/h (1 Bft)
18.10.2019 00:12 22,0 C 7,4 C 7,3 C 12,7 C 61 % 87 % 1017,4 hPa 0,0 l/m 3,2 km/h (1 Bft) N-NW 337 5,4 C 7,4 C 4,6 km/h (1 Bft)
18.10.2019 00:10 22,0 C 7,4 C 7,4 C 12,7 C 61 % 87 % 1017,4 hPa 0,0 l/m 3,2 km/h (1 Bft) N-NW 337 5,4 C 7,4 C 2,7 km/h (1 Bft)
18.10.2019 00:08 22,0 C 7,5 C 7,5 C 12,7 C 61 % 87 % 1017,4 hPa 0,0 l/m 3,2 km/h (1 Bft) N-NW 337 5,5 C 7,5 C 2,3 km/h (1 Bft)
18.10.2019 00:06 22,0 C 8,0 C 7,3 C 12,7 C 61 % 87 % 1017,4 hPa 0,0 l/m 2,9 km/h (1 Bft) N-NW 337 6,0 C 8,0 C 5,2 km/h (1 Bft)
18.10.2019 00:04 22,0 C 8,0 C 7,3 C 12,7 C 61 % 87 % 1017,4 hPa 0,0 l/m 2,9 km/h (1 Bft) N-NW 337 6,0 C 8,0 C 5,2 km/h (1 Bft)
18.10.2019 00:02 22,0 C 8,0 C 7,3 C 12,7 C 61 % 87 % 1017,4 hPa 0,0 l/m 2,9 km/h (1 Bft) N-NW 337 6,0 C 8,0 C 5,2 km/h (1 Bft)
18.10.2019 00:00 22,0 C 8,0 C 7,3 C 12,7 C 61 % 87 % 1017,4 hPa 0,0 l/m 2,7 km/h (1 Bft) N-NW 337 6,0 C 8,0 C 3,5 km/h (1 Bft)
_ Min-Zeit 01:08 05:56 05:58 08:48 10:30 10:44 00:58 - 04:06 - - 05:56 05:56 02:46
Minimum _ 21,8 C 5,3 C 5,8 C 11,9 C 59 % 80 % 1017,1 hPa - 0,0 km/h (0 Bft) - - 3,6 C 5,3 C 0,0 km/h (0 Bft)
_ Max-Zeit 10:48 10:46 10:40 00:00 00:00 08:52 10:18 03:38 02:30 - - 10:18 10:46 02:24
Maximum _ 23,0 C 12,0 C 13,3 C 12,7 C 61 % 92 % 1019,4 hPa 0,1 l/m 6,4 km/h
W-NW (2 Bft)
- - 9,3 C 12,0 C 12,4 km/h
W-NW (3 Bft)
Durchschnitt _ 22,0 C 7,7 C 7,9 C 12,3 C 61 % 88 % 1018,0 hPa #0,1 l/m 2,2 km/h (1 Bft) W-SW - 5,9 C 7,7 C 3,0 km/h (1 Bft)